Location: Bonac
(42.8765°N, 0.9753°E)
Time: 19:10:32
(UTC+00:00)

BREEZE-M DEB (TANK) - Pass Details

Date: 12 January 2026
Orbit: 608 x 17104 km, 49.5° (Epoch: 12 February)

Event Time Altitude Azimuth Distance (km) Brightness Sun altitude
Rises 18:43:47 0° 283° (WNW) 3,873 8.3 -21.5°
Reaches altitude 10° 18:47:02 10° 293° (WNW) 2,326 6.8 -22.1°
Maximum altitude 18:51:01 35° 2° (N) 996 4.0 -22.8°
Enters shadow 18:51:04 35° 3° (N) 996 4.0 -22.8°
